GW2818 Weather Reports


time (UTC)temp
C
wind
direction
speed
KPH
gust
KPH
rain 1hr
cm
rain 24hr
cm
rain mn
cm
humidity
%
barometer
mb
20260504190039 22 171 3.2 11.3 0.00 0.00 0.00 53 1008.1
20260504184539 23 257 3.2 9.7 0.00 0.00 0.00 48 1008.2
20260504183038 23 175 1.6 8.0 0.00 0.00 0.00 48 1008.5
20260504181538 22 112 3.2 9.7 0.00 0.00 0.00 51 1008.6
20260504180038 22 293 1.6 6.4 0.00 0.00 0.00 52 1008.7
20260504174537 21 186 3.2 9.7 0.00 0.00 0.00 51 1008.9
20260504173036 21 229 0.0 12.9 0.00 0.00 0.00 53 1009.1
20260504171535 21 120 1.6 6.4 0.00 0.00 0.00 53 1009.4
20260504081544 7 0 0.0 0.0 0.00 0.00 0.00 75 1012.1
20260504044544 3 0 0.0 0.0 0.00 0.00 0.00 84 1013.7
20260504043102 4 0 0.0 0.0 0.00 0.00 0.00 83 1013.7
20260504041541 4 0 0.0 0.0 0.00 0.00 0.00 81 1013.8
20260504040043 5 0 0.0 0.0 0.00 0.00 0.00 80 1013.8
20260504034546 5 0 0.0 0.0 0.00 0.00 0.00 79 1013.8
20260504033037 5 0 0.0 0.0 0.00 0.00 0.00 77 1013.7
20260504031550 5 0 0.0 0.0 0.00 0.00 0.00 76 1013.8
20260504030055 6 0 0.0 0.0 0.00 0.00 0.00 76 1013.9
20260504024539 6 0 0.0 0.0 0.00 0.00 0.00 74 1014.0
20260504023041 6 0 0.0 0.0 0.00 0.00 0.00 73 1014.2
20260504021545 7 0 0.0 0.0 0.00 0.00 0.00 70 1014.0
20260504020038 7 0 0.0 0.0 0.00 0.00 0.00 68 1014.1
20260504014543 8 0 0.0 0.0 0.00 0.00 0.00 66 1014.1
20260504013050 8 0 0.0 0.0 0.00 0.00 0.00 63 1014.0
20260504011541 8 0 0.0 0.0 0.00 0.00 0.00 62 1013.9
20260504010050 9 0 0.0 0.0 0.00 0.00 0.00 59 1013.9
20260504004544 10 0 0.0 0.0 0.00 0.00 0.00 58 1013.9
20260504003035 11 0 0.0 0.0 0.00 0.00 0.00 56 1013.8
20260504001539 11 0 0.0 1.6 0.00 0.00 0.00 53 1013.8
20260504000040 11 0 0.0 3.2 0.00 0.00 0.00 52 1013.8
20260503234542 12 0 0.0 0.0 0.00 0.00 0.00 53 1013.8
20260503233038 12 65 0.0 4.8 0.00 0.00 0.00 54 1013.7
20260503231536 12 0 0.0 3.2 0.00 0.00 0.00 49 1013.8
20260503230050 12 0 0.0 4.8 0.00 0.00 0.00 49 1013.8
20260503224543 13 0 0.0 4.8 0.00 0.00 0.00 49 1013.8
20260503223051 13 0 0.0 4.8 0.00 0.00 0.00 49 1013.9
20260503221546 13 0 0.0 3.2 0.00 0.00 0.00 49 1014.0
20260503220039 15 60 0.0 8.0 0.00 0.00 0.00 45 1013.9
20260503214554 15 276 0.0 4.8 0.00 0.00 0.00 43 1013.8
20260503213036 16 0 0.0 16.1 0.00 0.00 0.00 48 1013.6
20260503211541 15 0 0.0 8.0 0.00 0.00 0.00 47 1013.7
20260503210039 15 259 0.0 6.4 0.00 0.00 0.00 44 1013.7
20260503204543 15 0 0.0 3.2 0.00 0.00 0.00 44 1013.8
20260503203037 15 108 0.0 9.7 0.00 0.00 0.00 44 1014.3
20260503201541 15 0 1.6 6.4 0.00 0.00 0.00 44 1014.4
20260503200036 15 94 1.6 9.7 0.00 0.00 0.00 46 1014.5
20260503194546 15 276 1.6 9.7 0.00 0.00 0.00 41 1014.9
20260503193039 15 0 0.0 6.4 0.00 0.00 0.00 45 1015.0
20260503191538 16 58 0.0 3.2 0.00 0.00 0.00 43 1015.3